Time,TemperatureF,DewpointF,PressureIn,WindDirection,WindDirectionDegrees,WindSpeedMPH,WindSpeedGustMPH,Humidity,HourlyPrecipIn,Conditions,Clouds,dailyrainin,SoftwareType,DateUTC
2013-02-14 00:03:00,40.9,36.1,30.01,NW,313,2.0,2.0,83,0.00,,,0.00,Wunderground v.1.15,2013-02-14 05:03:00,
2013-02-14 00:08:00,40.9,36.1,30.01,NW,312,1.0,2.0,83,0.00,,,0.00,Wunderground v.1.15,2013-02-14 05:08:00,
2013-02-14 00:13:00,40.8,36.0,30.01,NW,311,1.0,2.0,83,0.00,,,0.00,Wunderground v.1.15,2013-02-14 05:13:00,
2013-02-14 00:18:00,40.7,36.2,30.01,WNW,297,0.0,2.0,84,0.00,,,0.00,Wunderground v.1.15,2013-02-14 05:18:00,
2013-02-14 00:23:00,40.7,35.9,30.01,NW,310,1.0,2.0,83,0.00,,,0.00,Wunderground v.1.15,2013-02-14 05:23:00,
2013-02-14 00:28:00,40.7,35.9,30.01,WNW,284,1.0,2.0,83,0.00,,,0.00,Wunderground v.1.15,2013-02-14 05:28:00,
2013-02-14 00:38:00,40.6,35.8,30.01,NW,323,1.0,2.0,83,0.00,,,0.00,Wunderground v.1.15,2013-02-14 05:38:00,
2013-02-14 00:42:00,40.6,36.1,30.01,NW,315,1.0,2.0,84,0.00,,,0.00,Wunderground v.1.15,2013-02-14 05:42:00,
2013-02-14 00:48:00,40.6,35.8,30.01,NW,312,1.0,2.0,83,0.00,,,0.00,Wunderground v.1.15,2013-02-14 05:48:00,
2013-02-14 00:53:00,40.6,35.8,30.01,NW,323,1.0,2.0,83,0.00,,,0.00,Wunderground v.1.15,2013-02-14 05:53:00,
2013-02-14 00:58:00,40.6,35.8,30.01,North,11,1.0,2.0,83,0.00,,,0.00,Wunderground v.1.15,2013-02-14 05:58:00,
2013-02-14 01:03:00,40.5,35.7,30.01,NW,309,2.0,2.0,83,0.00,,,0.00,Wunderground v.1.15,2013-02-14 06:03:00,
2013-02-14 01:08:00,40.6,35.8,30.01,NNW,334,3.0,3.0,83,0.00,,,0.00,Wunderground v.1.15,2013-02-14 06:08:00,
2013-02-14 01:13:00,40.6,35.8,30.02,NNW,341,3.0,3.0,83,0.00,,,0.00,Wunderground v.1.15,2013-02-14 06:13:00,
2013-02-14 01:18:00,40.6,35.8,30.01,NNE,12,2.0,2.0,83,0.00,,,0.00,Wunderground v.1.15,2013-02-14 06:18:00,
2013-02-14 01:23:00,40.6,35.8,30.02,NNW,337,2.0,2.0,83,0.00,,,0.00,Wunderground v.1.15,2013-02-14 06:23:00,
2013-02-14 01:28:00,40.6,35.5,30.02,North,359,2.0,4.0,82,0.00,,,0.00,Wunderground v.1.15,2013-02-14 06:28:00,
2013-02-14 01:38:00,40.6,35.8,30.02,NNW,329,3.0,4.0,83,0.00,,,0.00,Wunderground v.1.15,2013-02-14 06:38:00,
2013-02-14 01:43:00,40.6,35.8,30.02,NNW,332,3.0,4.0,83,0.00,,,0.00,Wunderground v.1.15,2013-02-14 06:43:00,
2013-02-14 01:48:00,40.6,35.8,30.02,NNW,334,3.0,3.0,83,0.00,,,0.00,Wunderground v.1.15,2013-02-14 06:48:00,
2013-02-14 01:53:00,40.6,35.8,30.02,NNW,336,3.0,3.0,83,0.00,,,0.00,Wunderground v.1.15,2013-02-14 06:53:00,
2013-02-14 01:58:00,40.6,36.1,30.02,North,349,3.0,3.0,84,0.00,,,0.00,Wunderground v.1.15,2013-02-14 06:58:00,
2013-02-14 02:03:00,40.6,36.1,30.02,North,5,2.0,3.0,84,0.00,,,0.00,Wunderground v.1.15,2013-02-14 07:03:00,
2013-02-14 02:13:00,40.5,36.0,30.02,North,9,2.0,2.0,84,0.00,,,0.00,Wunderground v.1.15,2013-02-14 07:13:00,
2013-02-14 02:18:00,40.5,36.3,30.02,NNW,339,1.0,2.0,85,0.00,,,0.00,Wunderground v.1.15,2013-02-14 07:18:00,
2013-02-14 02:23:00,40.4,35.9,30.02,NNE,20,1.0,2.0,84,0.00,,,0.00,Wunderground v.1.15,2013-02-14 07:23:00,
2013-02-14 02:28:00,40.6,36.1,30.02,NNE,16,1.0,2.0,84,0.00,,,0.00,Wunderground v.1.15,2013-02-14 07:28:00,
2013-02-14 02:33:00,40.7,35.9,30.02,North,360,2.0,2.0,83,0.00,,,0.00,Wunderground v.1.15,2013-02-14 07:33:00,
2013-02-14 02:43:00,40.6,35.8,30.02,North,355,2.0,2.0,83,0.00,,,0.00,Wunderground v.1.15,2013-02-14 07:43:00,
2013-02-14 02:48:00,40.6,35.8,30.02,NNW,340,2.0,2.0,83,0.00,,,0.00,Wunderground v.1.15,2013-02-14 07:48:00,
2013-02-14 02:53:00,40.6,35.8,30.02,NNE,12,2.0,2.0,83,0.00,,,0.00,Wunderground v.1.15,2013-02-14 07:53:00,
2013-02-14 02:58:00,40.5,35.7,30.02,NNE,12,1.0,2.0,83,0.00,,,0.00,Wunderground v.1.15,2013-02-14 07:58:00,
2013-02-14 03:03:00,40.5,35.7,30.02,North,6,1.0,2.0,83,0.00,,,0.00,Wunderground v.1.15,2013-02-14 08:03:00,
2013-02-14 03:08:00,40.5,35.7,30.02,NNW,337,2.0,2.0,83,0.00,,,0.00,Wunderground v.1.15,2013-02-14 08:08:00,
2013-02-14 03:18:00,40.5,35.7,30.02,North,5,2.0,3.0,83,0.00,,,0.00,Wunderground v.1.15,2013-02-14 08:18:00,
2013-02-14 03:23:00,40.5,35.7,30.02,NNE,29,2.0,3.0,83,0.00,,,0.00,Wunderground v.1.15,2013-02-14 08:23:00,
2013-02-14 03:28:00,40.6,35.5,30.02,ENE,57,2.0,3.0,82,0.00,,,0.00,Wunderground v.1.15,2013-02-14 08:28:00,
2013-02-14 03:33:00,40.6,35.5,30.02,NNW,338,3.0,3.0,82,0.00,,,0.00,Wunderground v.1.15,2013-02-14 08:33:00,
2013-02-14 03:38:00,40.5,35.4,30.02,North,4,2.0,2.0,82,0.00,,,0.00,Wunderground v.1.15,2013-02-14 08:38:00,
2013-02-14 03:48:00,40.5,35.7,30.02,North,9,1.0,1.0,83,0.00,,,0.00,Wunderground v.1.15,2013-02-14 08:48:00,
2013-02-14 03:53:00,40.5,35.7,30.02,North,355,1.0,2.0,83,0.00,,,0.00,Wunderground v.1.15,2013-02-14 08:53:00,
2013-02-14 03:58:00,40.5,35.7,30.02,NW,317,1.0,1.0,83,0.00,,,0.00,Wunderground v.1.15,2013-02-14 08:58:00,
2013-02-14 04:03:00,40.4,35.6,30.02,NW,318,0.0,2.0,83,0.00,,,0.00,Wunderground v.1.15,2013-02-14 09:03:00,
2013-02-14 04:08:00,40.3,35.5,30.02,NW,317,0.0,2.0,83,0.00,,,0.00,Wunderground v.1.15,2013-02-14 09:08:00,
2013-02-14 04:13:00,40.3,35.5,30.02,North,1,0.0,2.0,83,0.00,,,0.00,Wunderground v.1.15,2013-02-14 09:13:00,
2013-02-14 04:22:00,40.4,35.6,30.02,North,11,2.0,2.0,83,0.00,,,0.00,Wunderground v.1.15,2013-02-14 09:22:00,
2013-02-14 04:28:00,40.4,35.6,30.02,NE,39,2.0,2.0,83,0.00,,,0.00,Wunderground v.1.15,2013-02-14 09:28:00,
2013-02-14 04:33:00,40.4,35.3,30.02,North,351,2.0,2.0,82,0.00,,,0.00,Wunderground v.1.15,2013-02-14 09:33:00,
2013-02-14 04:38:00,40.5,35.1,30.02,North,360,1.0,2.0,81,0.00,,,0.00,Wunderground v.1.15,2013-02-14 09:38:00,
2013-02-14 04:43:00,40.6,34.9,30.02,NNE,25,1.0,2.0,80,0.00,,,0.00,Wunderground v.1.15,2013-02-14 09:43:00,
2013-02-14 04:48:00,40.6,34.9,30.02,NNE,25,1.0,1.0,80,0.00,,,0.00,Wunderground v.1.15,2013-02-14 09:48:00,
2013-02-14 04:53:00,40.5,35.1,30.02,NNE,25,0.0,2.0,81,0.00,,,0.00,Wunderground v.1.15,2013-02-14 09:53:00,
2013-02-14 04:58:00,40.4,35.0,30.02,NNE,25,0.0,2.0,81,0.00,,,0.00,Wunderground v.1.15,2013-02-14 09:58:00,
2013-02-14 05:03:00,40.3,35.2,30.02,NNE,25,0.0,2.0,82,0.00,,,0.00,Wunderground v.1.15,2013-02-14 10:03:00,
2013-02-14 05:12:00,40.2,35.1,30.02,NNE,25,0.0,2.0,82,0.00,,,0.00,Wunderground v.1.15,2013-02-14 10:12:00,
2013-02-14 05:17:00,40.2,35.1,30.02,NNE,25,0.0,2.0,82,0.00,,,0.00,Wunderground v.1.15,2013-02-14 10:17:00,
2013-02-14 05:23:00,40.2,35.8,30.02,NW,316,0.0,2.0,84,0.00,,,0.00,Wunderground v.1.15,2013-02-14 10:23:00,
2013-02-14 05:28:00,40.1,36.2,30.02,NW,309,0.0,2.0,86,0.00,,,0.00,Wunderground v.1.15,2013-02-14 10:28:00,
2013-02-14 05:33:00,39.8,36.0,30.02,NW,309,0.0,2.0,86,0.00,,,0.00,Wunderground v.1.15,2013-02-14 10:33:00,
2013-02-14 05:38:00,39.9,36.3,30.03,NW,309,0.0,2.0,87,0.00,,,0.00,Wunderground v.1.15,2013-02-14 10:38:00,
2013-02-14 05:43:00,39.8,36.2,30.03,NNW,329,0.0,2.0,87,0.00,,,0.00,Wunderground v.1.15,2013-02-14 10:43:00,
2013-02-14 05:48:00,39.8,36.2,30.03,NNW,329,1.0,2.0,87,0.00,,,0.00,Wunderground v.1.15,2013-02-14 10:48:00,
2013-02-14 05:58:00,39.7,36.1,30.02,North,357,1.0,1.0,87,0.00,,,0.00,Wunderground v.1.15,2013-02-14 10:58:00,
2013-02-14 06:08:00,39.7,36.1,30.02,North,357,0.0,0.0,87,0.00,,,0.00,Wunderground v.1.15,2013-02-14 11:08:00,
2013-02-14 06:13:00,39.7,36.4,30.03,NNW,340,0.0,1.0,88,0.00,,,0.00,Wunderground v.1.15,2013-02-14 11:13:00,
2013-02-14 06:18:00,39.6,36.3,30.03,NNW,333,0.0,0.0,88,0.00,,,0.00,Wunderground v.1.15,2013-02-14 11:18:00,
2013-02-14 06:28:00,39.5,36.0,30.03,NNW,333,0.0,0.0,87,0.00,,,0.00,Wunderground v.1.15,2013-02-14 11:28:00,
2013-02-14 06:33:00,39.4,35.9,30.03,NNW,333,0.0,0.0,87,0.00,,,0.00,Wunderground v.1.15,2013-02-14 11:33:00,
2013-02-14 06:38:00,39.4,35.9,30.03,NNW,333,0.0,0.0,87,0.00,,,0.00,Wunderground v.1.15,2013-02-14 11:38:00,
2013-02-14 06:43:00,39.4,35.9,30.03,NNW,333,0.0,0.0,87,0.00,,,0.00,Wunderground v.1.15,2013-02-14 11:43:00,
2013-02-14 06:48:00,39.3,35.8,30.04,NNW,333,0.0,1.0,87,0.00,,,0.00,Wunderground v.1.15,2013-02-14 11:48:00,
2013-02-14 06:53:00,39.2,35.7,30.04,NNW,333,0.0,1.0,87,0.00,,,0.00,Wunderground v.1.15,2013-02-14 11:53:00,
2013-02-14 07:03:00,38.9,35.4,30.04,NNW,333,0.0,1.0,87,0.00,,,0.00,Wunderground v.1.15,2013-02-14 12:03:00,
2013-02-14 07:08:00,38.7,35.2,30.05,NNW,333,0.0,1.0,87,0.00,,,0.00,Wunderground v.1.15,2013-02-14 12:08:00,
2013-02-14 07:13:00,38.5,35.3,30.05,NW,308,0.0,1.0,88,0.00,,,0.00,Wunderground v.1.15,2013-02-14 12:13:00,
2013-02-14 07:23:00,38.3,35.3,30.05,WNW,301,0.0,1.0,89,0.00,,,0.00,Wunderground v.1.15,2013-02-14 12:23:00,
2013-02-14 07:28:00,38.0,35.3,30.05,WNW,297,0.0,1.0,90,0.00,,,0.00,Wunderground v.1.15,2013-02-14 12:28:00,
2013-02-14 07:38:00,37.5,35.1,30.06,WSW,249,1.0,1.0,91,0.00,,,0.00,Wunderground v.1.15,2013-02-14 12:38:00,
2013-02-14 07:43:00,37.2,34.8,30.06,WSW,245,1.0,1.0,91,0.00,,,0.00,Wunderground v.1.15,2013-02-14 12:43:00,
2013-02-14 07:48:00,36.8,34.4,30.06,WSW,245,1.0,1.0,91,0.00,,,0.00,Wunderground v.1.15,2013-02-14 12:48:00,
2013-02-14 07:53:00,36.5,34.4,30.07,WSW,245,0.0,1.0,92,0.00,,,0.00,Wunderground v.1.15,2013-02-14 12:53:00,
2013-02-14 07:58:00,36.3,34.2,30.07,WSW,245,0.0,1.0,92,0.00,,,0.00,Wunderground v.1.15,2013-02-14 12:58:00,
2013-02-14 08:03:00,36.0,33.9,30.07,WSW,245,0.0,1.0,92,0.00,,,0.00,Wunderground v.1.15,2013-02-14 13:03:00,
2013-02-14 08:13:00,35.9,34.1,30.07,SW,226,0.0,2.0,93,0.00,,,0.00,Wunderground v.1.15,2013-02-14 13:13:00,
2013-02-14 08:18:00,35.9,34.1,30.08,SW,218,1.0,1.0,93,0.00,,,0.00,Wunderground v.1.15,2013-02-14 13:18:00,
2013-02-14 08:23:00,35.8,34.0,30.08,SW,232,1.0,2.0,93,0.00,,,0.00,Wunderground v.1.15,2013-02-14 13:23:00,
2013-02-14 08:28:00,35.8,34.0,30.08,SW,214,1.0,1.0,93,0.00,,,0.00,Wunderground v.1.15,2013-02-14 13:28:00,
2013-02-14 08:33:00,36.0,34.4,30.09,SW,221,1.0,1.0,94,0.00,,,0.00,Wunderground v.1.15,2013-02-14 13:33:00,
2013-02-14 08:38:00,36.2,34.6,30.09,SW,231,1.0,1.0,94,0.00,,,0.00,Wunderground v.1.15,2013-02-14 13:38:00,
2013-02-14 08:47:00,37.0,35.4,30.09,SW,235,1.0,1.0,94,0.00,,,0.00,Wunderground v.1.15,2013-02-14 13:47:00,
2013-02-14 08:52:00,37.5,35.7,30.09,SW,235,1.0,1.0,93,0.00,,,0.00,Wunderground v.1.15,2013-02-14 13:52:00,
2013-02-14 08:57:00,38.1,36.0,30.09,SW,229,1.0,1.0,92,0.00,,,0.00,Wunderground v.1.15,2013-02-14 13:57:00,
2013-02-14 09:02:00,38.7,36.3,30.09,SSW,205,1.0,1.0,91,0.00,,,0.00,Wunderground v.1.15,2013-02-14 14:02:00,
2013-02-14 09:07:00,39.5,36.5,30.09,SSW,205,1.0,1.0,89,0.00,,,0.00,Wunderground v.1.15,2013-02-14 14:07:00,
2013-02-14 09:13:00,40.5,36.9,30.09,SSW,198,0.0,1.0,87,0.00,,,0.00,Wunderground v.1.15,2013-02-14 14:13:00,
2013-02-14 09:18:00,41.1,35.7,30.09,ENE,68,0.0,1.0,81,0.00,,,0.00,Wunderground v.1.15,2013-02-14 14:18:00,
2013-02-14 09:23:00,41.4,34.1,30.09,NNE,13,1.0,1.0,75,0.00,,,0.00,Wunderground v.1.15,2013-02-14 14:23:00,
2013-02-14 09:28:00,41.6,33.2,30.09,WNW,290,1.0,3.0,72,0.00,,,0.00,Wunderground v.1.15,2013-02-14 14:28:00,
2013-02-14 09:33:00,41.9,34.2,30.09,WSW,250,1.0,3.0,74,0.00,,,0.00,Wunderground v.1.15,2013-02-14 14:33:00,
2013-02-14 09:38:00,42.3,34.3,30.09,WNW,301,1.0,1.0,73,0.00,,,0.00,Wunderground v.1.15,2013-02-14 14:38:00,
2013-02-14 09:48:00,42.5,34.1,30.09,WSW,250,2.0,3.0,72,0.00,,,0.00,Wunderground v.1.15,2013-02-14 14:48:00,
2013-02-14 09:53:00,42.7,33.9,30.09,West,278,2.0,3.0,71,0.00,,,0.00,Wunderground v.1.15,2013-02-14 14:53:00,
2013-02-14 09:58:00,42.9,33.8,30.09,SW,232,2.0,2.0,70,0.00,,,0.00,Wunderground v.1.15,2013-02-14 14:58:00,
2013-02-14 10:03:00,43.1,34.3,30.09,South,173,1.0,2.0,71,0.00,,,0.00,Wunderground v.1.15,2013-02-14 15:03:00,
2013-02-14 10:08:00,43.7,34.6,30.08,SW,228,1.0,4.0,70,0.00,,,0.00,Wunderground v.1.15,2013-02-14 15:08:00,
2013-02-14 10:18:00,44.3,34.0,30.08,SE,136,2.0,2.0,67,0.00,,,0.00,Wunderground v.1.15,2013-02-14 15:18:00,
2013-02-14 10:23:00,44.6,35.1,30.08,ENE,57,1.0,2.0,69,0.00,,,0.00,Wunderground v.1.15,2013-02-14 15:23:00,
2013-02-14 10:28:00,45.0,34.7,30.08,SE,136,1.0,3.0,67,0.00,,,0.00,Wunderground v.1.15,2013-02-14 15:28:00,
2013-02-14 10:33:00,45.0,34.7,30.08,SSE,149,2.0,3.0,67,0.00,,,0.00,Wunderground v.1.15,2013-02-14 15:33:00,
2013-02-14 10:38:00,45.5,35.5,30.07,South,186,1.0,1.0,68,0.00,,,0.00,Wunderground v.1.15,2013-02-14 15:38:00,
2013-02-14 10:43:00,46.0,36.0,30.07,SSW,195,1.0,1.0,68,0.00,,,0.00,Wunderground v.1.15,2013-02-14 15:43:00,
2013-02-14 10:53:00,45.6,35.3,30.06,SSW,208,2.0,2.0,67,0.00,,,0.00,Wunderground v.1.15,2013-02-14 15:53:00,
2013-02-14 10:58:00,45.8,35.5,30.06,SW,223,2.0,2.0,67,0.00,,,0.00,Wunderground v.1.15,2013-02-14 15:58:00,
2013-02-14 11:03:00,45.9,35.6,30.06,SSW,212,3.0,4.0,67,0.00,,,0.00,Wunderground v.1.15,2013-02-14 16:03:00,
2013-02-14 11:08:00,45.7,35.0,30.06,WSW,253,3.0,3.0,66,0.00,,,0.00,Wunderground v.1.15,2013-02-14 16:08:00,
2013-02-14 11:13:00,46.0,36.0,30.06,West,262,3.0,3.0,68,0.00,,,0.00,Wunderground v.1.15,2013-02-14 16:13:00,
2013-02-14 11:23:00,46.5,36.5,30.06,WSW,242,3.0,7.0,68,0.00,,,0.00,Wunderground v.1.15,2013-02-14 16:23:00,
2013-02-14 11:28:00,46.3,35.9,30.06,WSW,239,5.0,6.0,67,0.00,,,0.00,Wunderground v.1.15,2013-02-14 16:28:00,
2013-02-14 11:33:00,46.3,35.6,30.07,SW,217,6.0,6.0,66,0.00,,,0.00,Wunderground v.1.15,2013-02-14 16:33:00,
2013-02-14 11:38:00,46.4,36.8,30.07,SE,127,4.0,4.0,69,0.00,,,0.00,Wunderground v.1.15,2013-02-14 16:38:00,
2013-02-14 11:43:00,47.1,35.9,30.07,West,259,2.0,4.0,65,0.00,,,0.00,Wunderground v.1.15,2013-02-14 16:43:00,
2013-02-14 11:48:00,47.6,36.4,30.07,WNW,287,1.0,1.0,65,0.00,,,0.00,Wunderground v.1.15,2013-02-14 16:48:00,
2013-02-14 11:57:00,48.7,37.5,30.07,WSW,250,2.0,2.0,65,0.00,,,0.00,Wunderground v.1.15,2013-02-14 16:57:00,
2013-02-14 12:02:00,49.1,37.0,30.07,SW,217,2.0,4.0,63,0.00,,,0.00,Wunderground v.1.15,2013-02-14 17:02:00,
2013-02-14 12:07:00,49.1,36.6,30.07,South,183,2.0,2.0,62,0.00,,,0.00,Wunderground v.1.15,2013-02-14 17:07:00,
2013-02-14 12:12:00,49.5,37.4,30.08,SSE,167,2.0,3.0,63,0.00,,,0.00,Wunderground v.1.15,2013-02-14 17:12:00,
2013-02-14 12:17:00,50.1,38.4,30.08,SSW,205,3.0,3.0,64,0.00,,,0.00,Wunderground v.1.15,2013-02-14 17:17:00,
2013-02-14 12:23:00,50.1,37.6,30.08,SSW,211,4.0,4.0,62,0.00,,,0.00,Wunderground v.1.15,2013-02-14 17:23:00,
2013-02-14 12:28:00,50.3,37.4,30.07,SSW,213,4.0,7.0,61,0.00,,,0.00,Wunderground v.1.15,2013-02-14 17:28:00,
2013-02-14 12:33:00,50.2,38.1,30.07,SW,226,5.0,7.0,63,0.00,,,0.00,Wunderground v.1.15,2013-02-14 17:33:00,
2013-02-14 12:38:00,50.8,38.2,30.07,SSW,207,5.0,5.0,62,0.00,,,0.00,Wunderground v.1.15,2013-02-14 17:38:00,
2013-02-14 12:43:00,51.3,37.4,30.07,East,96,3.0,5.0,59,0.00,,,0.00,Wunderground v.1.15,2013-02-14 17:43:00,
2013-02-14 12:48:00,51.4,38.0,30.06,SW,228,3.0,6.0,60,0.00,,,0.00,Wunderground v.1.15,2013-02-14 17:48:00,
2013-02-14 12:58:00,51.0,38.4,30.05,WSW,238,4.0,7.0,62,0.00,,,0.00,Wunderground v.1.15,2013-02-14 17:58:00,
2013-02-14 13:03:00,50.6,37.2,30.05,West,264,5.0,7.0,60,0.00,,,0.00,Wunderground v.1.15,2013-02-14 18:03:00,
2013-02-14 13:08:00,50.4,37.9,30.05,WSW,253,6.0,6.0,62,0.00,,,0.00,Wunderground v.1.15,2013-02-14 18:08:00,
2013-02-14 13:13:00,50.3,36.1,30.05,WSW,239,4.0,6.0,58,0.00,,,0.00,Wunderground v.1.15,2013-02-14 18:13:00,
2013-02-14 13:18:00,50.7,37.7,30.04,SW,221,4.0,6.0,61,0.00,,,0.00,Wunderground v.1.15,2013-02-14 18:18:00,
2013-02-14 13:23:00,51.2,37.4,30.04,SW,231,5.0,8.0,59,0.00,,,0.00,Wunderground v.1.15,2013-02-14 18:23:00,
2013-02-14 13:33:00,51.6,37.7,30.03,WSW,245,4.0,7.0,59,0.00,,,0.00,Wunderground v.1.15,2013-02-14 18:33:00,
2013-02-14 13:38:00,51.5,37.2,30.03,SW,234,5.0,7.0,58,0.00,,,0.00,Wunderground v.1.15,2013-02-14 18:38:00,
2013-02-14 13:43:00,51.6,37.7,30.02,SW,229,6.0,7.0,59,0.00,,,0.00,Wunderground v.1.15,2013-02-14 18:43:00,
2013-02-14 13:48:00,52.2,38.7,30.02,SW,236,5.0,6.0,60,0.00,,,0.00,Wunderground v.1.15,2013-02-14 18:48:00,
2013-02-14 13:53:00,52.6,37.8,30.01,WSW,245,4.0,7.0,57,0.00,,,0.00,Wunderground v.1.15,2013-02-14 18:53:00,
2013-02-14 14:03:00,52.2,37.4,30.01,WNW,298,5.0,5.0,57,0.00,,,0.00,Wunderground v.1.15,2013-02-14 19:03:00,
2013-02-14 14:08:00,52.6,39.1,30.01,West,259,5.0,7.0,60,0.00,,,0.00,Wunderground v.1.15,2013-02-14 19:08:00,
2013-02-14 14:13:00,52.9,38.5,30.01,WSW,249,6.0,7.0,58,0.00,,,0.00,Wunderground v.1.15,2013-02-14 19:13:00,
2013-02-14 14:18:00,52.9,38.5,30.01,WNW,284,6.0,6.0,58,0.00,,,0.00,Wunderground v.1.15,2013-02-14 19:18:00,
2013-02-14 14:23:00,53.2,39.2,30.01,SW,225,6.0,10.0,59,0.00,,,0.00,Wunderground v.1.15,2013-02-14 19:23:00,
2013-02-14 14:28:00,53.5,39.5,30.01,SW,228,6.0,6.0,59,0.00,,,0.00,Wunderground v.1.15,2013-02-14 19:28:00,
2013-02-14 14:38:00,54.0,38.6,30.01,WSW,255,5.0,10.0,56,0.00,,,0.00,Wunderground v.1.15,2013-02-14 19:38:00,
2013-02-14 14:43:00,53.8,38.0,30.01,WSW,251,8.0,10.0,55,0.00,,,0.00,Wunderground v.1.15,2013-02-14 19:43:00,
2013-02-14 14:48:00,53.9,38.6,30.01,SW,222,7.0,11.0,56,0.00,,,0.00,Wunderground v.1.15,2013-02-14 19:48:00,
2013-02-14 14:53:00,54.4,38.1,30.01,South,191,7.0,11.0,54,0.00,,,0.00,Wunderground v.1.15,2013-02-14 19:53:00,
2013-02-14 14:58:00,54.6,39.7,30.01,WSW,243,8.0,8.0,57,0.00,,,0.00,Wunderground v.1.15,2013-02-14 19:58:00,
2013-02-14 15:08:00,54.6,37.3,30.01,SW,231,7.0,8.0,52,0.00,,,0.00,Wunderground v.1.15,2013-02-14 20:08:00,
2013-02-14 15:13:00,54.8,38.0,30.01,SW,214,7.0,8.0,53,0.00,,,0.00,Wunderground v.1.15,2013-02-14 20:13:00,
2013-02-14 15:18:00,55.1,37.8,30.00,WSW,240,8.0,15.0,52,0.00,,,0.00,Wunderground v.1.15,2013-02-14 20:18:00,
2013-02-14 15:23:00,54.9,36.6,30.00,WSW,255,8.0,15.0,50,0.00,,,0.00,Wunderground v.1.15,2013-02-14 20:23:00,
2013-02-14 15:28:00,55.1,37.8,30.00,WSW,238,7.0,7.0,52,0.00,,,0.00,Wunderground v.1.15,2013-02-14 20:28:00,
2013-02-14 15:33:00,55.3,38.0,30.00,WSW,250,6.0,7.0,52,0.00,,,0.00,Wunderground v.1.15,2013-02-14 20:33:00,
2013-02-14 15:42:00,55.2,37.4,30.00,SW,219,7.0,9.0,51,0.00,,,0.00,Wunderground v.1.15,2013-02-14 20:42:00,
2013-02-14 15:47:00,55.5,38.6,30.00,WSW,243,7.0,11.0,53,0.00,,,0.00,Wunderground v.1.15,2013-02-14 20:47:00,
2013-02-14 15:52:00,55.4,37.6,30.01,SW,233,9.0,11.0,51,0.00,,,0.00,Wunderground v.1.15,2013-02-14 20:52:00,
2013-02-14 15:57:00,55.5,38.6,30.01,WSW,245,9.0,9.0,53,0.00,,,0.00,Wunderground v.1.15,2013-02-14 20:57:00,
2013-02-14 16:02:00,55.7,37.8,30.01,WSW,241,8.0,9.0,51,0.00,,,0.00,Wunderground v.1.15,2013-02-14 21:02:00,
2013-02-14 16:08:00,55.6,37.2,30.01,WSW,246,8.0,8.0,50,0.00,,,0.00,Wunderground v.1.15,2013-02-14 21:08:00,
2013-02-14 16:13:00,55.6,37.2,30.01,WSW,240,9.0,11.0,50,0.00,,,0.00,Wunderground v.1.15,2013-02-14 21:13:00,
2013-02-14 16:18:00,55.7,37.3,30.01,West,260,9.0,9.0,50,0.00,,,0.00,Wunderground v.1.15,2013-02-14 21:18:00,
2013-02-14 16:23:00,55.9,38.5,30.00,WSW,245,9.0,9.0,52,0.00,,,0.00,Wunderground v.1.15,2013-02-14 21:23:00,
2013-02-14 16:28:00,56.0,38.6,30.01,West,261,8.0,10.0,52,0.00,,,0.00,Wunderground v.1.15,2013-02-14 21:28:00,
2013-02-14 16:33:00,55.9,37.5,30.01,WSW,242,9.0,10.0,50,0.00,,,0.00,Wunderground v.1.15,2013-02-14 21:33:00,
2013-02-14 16:43:00,55.9,37.5,30.01,SW,231,9.0,10.0,50,0.00,,,0.00,Wunderground v.1.15,2013-02-14 21:43:00,
2013-02-14 16:48:00,56.1,38.2,30.00,WSW,239,8.0,8.0,51,0.00,,,0.00,Wunderground v.1.15,2013-02-14 21:48:00,
2013-02-14 16:53:00,56.2,38.3,30.00,South,180,7.0,8.0,51,0.00,,,0.00,Wunderground v.1.15,2013-02-14 21:53:00,
2013-02-14 16:58:00,56.2,38.3,30.00,SSW,209,7.0,7.0,51,0.00,,,0.00,Wunderground v.1.15,2013-02-14 21:58:00,
2013-02-14 17:03:00,56.2,38.3,30.00,WSW,237,7.0,7.0,51,0.00,,,0.00,Wunderground v.1.15,2013-02-14 22:03:00,
2013-02-14 17:08:00,56.1,37.7,30.00,WSW,239,7.0,8.0,50,0.00,,,0.00,Wunderground v.1.15,2013-02-14 22:08:00,
2013-02-14 17:18:00,55.9,38.5,30.00,SW,223,7.0,7.0,52,0.00,,,0.00,Wunderground v.1.15,2013-02-14 22:18:00,
2013-02-14 17:23:00,55.9,38.5,30.01,WSW,250,6.0,7.0,52,0.00,,,0.00,Wunderground v.1.15,2013-02-14 22:23:00,
2013-02-14 17:28:00,55.9,37.5,30.01,WSW,240,6.0,6.0,50,0.00,,,0.00,Wunderground v.1.15,2013-02-14 22:28:00,
2013-02-14 17:33:00,55.9,37.5,30.00,SW,236,7.0,7.0,50,0.00,,,0.00,Wunderground v.1.15,2013-02-14 22:33:00,
2013-02-14 17:38:00,55.8,37.9,30.00,WSW,255,7.0,7.0,51,0.00,,,0.00,Wunderground v.1.15,2013-02-14 22:38:00,
2013-02-14 17:48:00,55.5,38.6,30.00,SW,217,5.0,5.0,53,0.00,,,0.00,Wunderground v.1.15,2013-02-14 22:48:00,
2013-02-14 17:53:00,55.3,38.9,30.00,WSW,238,5.0,5.0,54,0.00,,,0.00,Wunderground v.1.15,2013-02-14 22:53:00,
2013-02-14 17:58:00,55.2,38.4,30.00,SW,226,5.0,5.0,53,0.00,,,0.00,Wunderground v.1.15,2013-02-14 22:58:00,
2013-02-14 18:03:00,54.9,38.1,30.00,SW,221,4.0,5.0,53,0.00,,,0.00,Wunderground v.1.15,2013-02-14 23:03:00,
2013-02-14 18:08:00,54.6,38.3,30.00,WSW,239,3.0,4.0,54,0.00,,,0.00,Wunderground v.1.15,2013-02-14 23:08:00,
2013-02-14 18:13:00,54.0,38.2,30.00,SW,217,3.0,4.0,55,0.00,,,0.00,Wunderground v.1.15,2013-02-14 23:13:00,
2013-02-14 18:23:00,52.6,38.7,30.01,SW,226,2.0,3.0,59,0.00,,,0.00,Wunderground v.1.15,2013-02-14 23:23:00,
2013-02-14 18:28:00,51.8,38.3,30.01,SW,222,1.0,1.0,60,0.00,,,0.00,Wunderground v.1.15,2013-02-14 23:28:00,
2013-02-14 18:33:00,51.1,38.5,30.01,SW,222,1.0,1.0,62,0.00,,,0.00,Wunderground v.1.15,2013-02-14 23:33:00,
2013-02-14 18:38:00,50.3,38.2,30.01,SW,222,0.0,1.0,63,0.00,,,0.00,Wunderground v.1.15,2013-02-14 23:38:00,
2013-02-14 18:43:00,49.6,38.7,30.01,SW,222,0.0,1.0,66,0.00,,,0.00,Wunderground v.1.15,2013-02-14 23:43:00,
2013-02-14 18:52:00,47.8,38.1,30.02,SW,222,0.0,1.0,69,0.00,,,0.00,Wunderground v.1.15,2013-02-14 23:52:00,
2013-02-14 18:57:00,47.2,38.6,30.02,SW,222,0.0,1.0,72,0.00,,,0.00,Wunderground v.1.15,2013-02-14 23:57:00,
2013-02-14 19:02:00,46.8,38.6,30.02,SW,223,0.0,1.0,73,0.00,,,0.00,Wunderground v.1.15,2013-02-15 00:02:00,
2013-02-14 19:07:00,46.3,38.5,30.02,SW,222,0.0,1.0,74,0.00,,,0.00,Wunderground v.1.15,2013-02-15 00:07:00,
2013-02-14 19:12:00,45.9,38.8,30.02,SW,222,0.0,1.0,76,0.00,,,0.00,Wunderground v.1.15,2013-02-15 00:12:00,
2013-02-14 19:18:00,45.5,38.7,30.02,SW,222,0.0,1.0,77,0.00,,,0.00,Wunderground v.1.15,2013-02-15 00:18:00,
2013-02-14 19:23:00,45.0,38.6,30.02,SW,222,0.0,1.0,78,0.00,,,0.00,Wunderground v.1.15,2013-02-15 00:23:00,
2013-02-14 19:28:00,44.6,38.8,30.02,SW,222,0.0,1.0,80,0.00,,,0.00,Wunderground v.1.15,2013-02-15 00:28:00,
2013-02-14 19:33:00,44.4,38.9,30.02,SW,222,0.0,1.0,81,0.00,,,0.00,Wunderground v.1.15,2013-02-15 00:33:00,
2013-02-14 19:38:00,44.1,39.0,30.02,SW,222,0.0,1.0,82,0.00,,,0.00,Wunderground v.1.15,2013-02-15 00:38:00,
2013-02-14 19:47:00,43.4,38.3,30.02,SW,222,0.0,1.0,82,0.00,,,0.00,Wunderground v.1.15,2013-02-15 00:47:00,
2013-02-14 19:53:00,42.9,38.1,30.03,SW,222,0.0,1.0,83,0.00,,,0.00,Wunderground v.1.15,2013-02-15 00:53:00,
2013-02-14 19:58:00,42.9,38.7,30.03,SW,222,0.0,1.0,85,0.00,,,0.00,Wunderground v.1.15,2013-02-15 00:58:00,
2013-02-14 20:03:00,43.0,38.5,30.03,SW,222,0.0,1.0,84,0.00,,,0.00,Wunderground v.1.15,2013-02-15 01:03:00,
2013-02-14 20:08:00,42.7,37.9,30.03,SW,222,0.0,1.0,83,0.00,,,0.00,Wunderground v.1.15,2013-02-15 01:08:00,
2013-02-14 20:13:00,42.4,37.9,30.03,SW,222,0.0,1.0,84,0.00,,,0.00,Wunderground v.1.15,2013-02-15 01:13:00,
2013-02-14 20:18:00,42.3,38.1,30.03,SW,222,0.0,1.0,85,0.00,,,0.00,Wunderground v.1.15,2013-02-15 01:18:00,
2013-02-14 20:28:00,41.9,37.7,30.03,SW,222,0.0,1.0,85,0.00,,,0.00,Wunderground v.1.15,2013-02-15 01:28:00,
2013-02-14 20:33:00,41.4,37.2,30.03,SW,222,0.0,1.0,85,0.00,,,0.00,Wunderground v.1.15,2013-02-15 01:33:00,
2013-02-14 20:38:00,40.8,36.9,30.03,SW,222,0.0,1.0,86,0.00,,,0.00,Wunderground v.1.15,2013-02-15 01:38:00,
2013-02-14 20:43:00,40.5,37.2,30.03,SW,222,0.0,1.0,88,0.00,,,0.00,Wunderground v.1.15,2013-02-15 01:43:00,
2013-02-14 20:48:00,40.2,36.9,30.03,SW,222,0.0,1.0,88,0.00,,,0.00,Wunderground v.1.15,2013-02-15 01:48:00,
2013-02-14 20:53:00,39.9,37.2,30.03,SW,222,0.0,1.0,90,0.00,,,0.00,Wunderground v.1.15,2013-02-15 01:53:00,
2013-02-14 21:03:00,39.7,37.3,30.04,SW,222,0.0,1.0,91,0.00,,,0.00,Wunderground v.1.15,2013-02-15 02:03:00,
2013-02-14 21:08:00,39.4,36.7,30.03,SW,222,0.0,1.0,90,0.00,,,0.00,Wunderground v.1.15,2013-02-15 02:08:00,
2013-02-14 21:13:00,39.2,36.8,30.04,SW,222,0.0,1.0,91,0.00,,,0.00,Wunderground v.1.15,2013-02-15 02:13:00,
2013-02-14 21:18:00,39.1,36.7,30.04,SW,222,0.0,1.0,91,0.00,,,0.00,Wunderground v.1.15,2013-02-15 02:18:00,
2013-02-14 21:23:00,38.9,36.8,30.04,SW,222,0.0,1.0,92,0.00,,,0.00,Wunderground v.1.15,2013-02-15 02:23:00,
2013-02-14 21:33:00,38.5,36.4,30.04,SW,222,0.0,1.0,92,0.00,,,0.00,Wunderground v.1.15,2013-02-15 02:33:00,
2013-02-14 21:38:00,38.3,36.2,30.04,SW,222,0.0,1.0,92,0.00,,,0.00,Wunderground v.1.15,2013-02-15 02:38:00,
2013-02-14 21:43:00,38.0,35.9,30.04,SW,222,0.0,1.0,92,0.00,,,0.00,Wunderground v.1.15,2013-02-15 02:43:00,
2013-02-14 21:48:00,37.6,35.5,30.04,SW,222,0.0,1.0,92,0.00,,,0.00,Wunderground v.1.15,2013-02-15 02:48:00,
2013-02-14 21:53:00,37.1,35.0,30.04,SW,221,0.0,1.0,92,0.00,,,0.00,Wunderground v.1.15,2013-02-15 02:53:00,
2013-02-14 21:58:00,37.1,35.5,30.04,SW,222,0.0,1.0,94,0.00,,,0.00,Wunderground v.1.15,2013-02-15 02:58:00,
2013-02-14 22:08:00,37.2,35.6,30.05,SW,222,0.0,1.0,94,0.00,,,0.00,Wunderground v.1.15,2013-02-15 03:08:00,
2013-02-14 22:13:00,37.2,35.6,30.05,SW,222,0.0,1.0,94,0.00,,,0.00,Wunderground v.1.15,2013-02-15 03:13:00,
2013-02-14 22:18:00,37.0,35.4,30.04,SW,222,0.0,1.0,94,0.00,,,0.00,Wunderground v.1.15,2013-02-15 03:18:00,
2013-02-14 22:23:00,37.0,35.7,30.05,SW,222,0.0,1.0,95,0.00,,,0.00,Wunderground v.1.15,2013-02-15 03:23:00,
2013-02-14 22:28:00,36.8,35.2,30.05,SW,222,0.0,1.0,94,0.00,,,0.00,Wunderground v.1.15,2013-02-15 03:28:00,
2013-02-14 22:37:00,35.9,34.3,30.05,SW,222,0.0,1.0,94,0.00,,,0.00,Wunderground v.1.15,2013-02-15 03:37:00,
2013-02-14 22:42:00,36.1,34.8,30.05,SW,222,0.0,1.0,95,0.00,,,0.00,Wunderground v.1.15,2013-02-15 03:42:00,
2013-02-14 22:47:00,36.9,35.9,30.05,SW,222,0.0,1.0,96,0.00,,,0.00,Wunderground v.1.15,2013-02-15 03:47:00,
2013-02-14 22:52:00,37.4,36.4,30.05,North,357,0.0,1.0,96,0.00,,,0.00,Wunderground v.1.15,2013-02-15 03:52:00,
2013-02-14 22:57:00,37.3,36.0,30.05,North,357,0.0,1.0,95,0.00,,,0.00,Wunderground v.1.15,2013-02-15 03:57:00,
2013-02-14 23:02:00,36.9,35.6,30.05,West,263,0.0,1.0,95,0.00,,,0.00,Wunderground v.1.15,2013-02-15 04:02:00,
2013-02-14 23:08:00,36.6,35.3,30.05,West,263,0.0,1.0,95,0.00,,,0.00,Wunderground v.1.15,2013-02-15 04:08:00,
2013-02-14 23:13:00,36.4,35.4,30.05,West,262,0.0,1.0,96,0.00,,,0.00,Wunderground v.1.15,2013-02-15 04:13:00,
2013-02-14 23:18:00,36.2,35.2,30.05,West,262,0.0,1.0,96,0.00,,,0.00,Wunderground v.1.15,2013-02-15 04:18:00,
2013-02-14 23:23:00,36.1,35.1,30.05,West,263,0.0,1.0,96,0.00,,,0.00,Wunderground v.1.15,2013-02-15 04:23:00,
2013-02-14 23:28:00,36.0,35.0,30.05,West,263,0.0,1.0,96,0.00,,,0.00,Wunderground v.1.15,2013-02-15 04:28:00,
2013-02-14 23:33:00,36.0,35.0,30.06,West,263,0.0,1.0,96,0.00,,,0.00,Wunderground v.1.15,2013-02-15 04:33:00,
2013-02-14 23:43:00,35.5,34.5,30.05,West,263,0.0,1.0,96,0.00,,,0.00,Wunderground v.1.15,2013-02-15 04:43:00,
2013-02-14 23:48:00,35.2,34.2,30.05,West,263,0.0,1.0,96,0.00,,,0.00,Wunderground v.1.15,2013-02-15 04:48:00,
2013-02-14 23:53:00,35.1,34.1,30.06,West,262,0.0,1.0,96,0.00,,,0.00,Wunderground v.1.15,2013-02-15 04:53:00,
2013-02-14 23:58:00,35.0,34.0,30.06,West,263,0.0,1.0,96,0.00,,,0.00,Wunderground v.1.15,2013-02-15 04:58:00,